This demonstration page uses our WeatherBlox Daily Observations layout. Learn more.

Hourly Observations for November 11, 2016

Temp ( °F °C ) Dew Point ( °F °C ) Humidity (%) Winds ( mph kmh ) Pressure ( in mb ) Visibility ( mi km ) Precip ( " mm )
12:15 am 00:15 Clear 37 3 36 2 93 93 W 7 11 29.88 1012 10 16.09344 0 0
12:35 am 00:35 Clear 43 6 36 2 76 76 W 7 11 29.88 1012 7 11.265408 0 0
12:55 am 00:55 Clear 50 10 32 0 50 50 Calm 29.83 1010 10 16.09344 0 0
1:15 am 01:15 Clear 50 10 30 -1 47 47 Calm 29.83 1010 10 16.09344 0 0
1:35 am 01:35 Clear 43 6 34 1 71 71 Calm 29.85 1011 10 16.09344 0 0
1:55 am 01:55 Clear 50 10 32 0 50 50 SW 5 7 29.83 1010 10 16.09344 0 0
2:15 am 02:15 Clear 45 7 32 0 61 61 Calm 29.85 1011 10 16.09344 0 0
2:35 am 02:35 Clear 45 7 32 0 61 61 WNW 8 13 29.85 1011 10 16.09344 0 0
2:55 am 02:55 Clear 52 11 32 0 47 47 W 6 9 29.83 1010 10 16.09344 0 0
3:15 am 03:15 Clear 54 12 32 0 44 44 WNW 14 22 29.8 1009 10 16.09344 0 0
3:35 am 03:35 Clear 55 13 32 0 41 41 WNW 16 26 29.8 1009 10 16.09344 0 0
3:55 am 03:55 Clear 55 13 34 1 44 44 WNW 30 48 29.8 1009 10 16.09344 0 0
4:15 am 04:15 Clear 55 13 34 1 44 44 WNW 29 46 29.8 1009 10 16.09344 0 0
4:35 am 04:35 Clear 55 13 36 2 47 47 WNW 25 41 29.8 1009 10 16.09344 0 0
4:55 am 04:55 Clear 55 13 36 2 47 47 WNW 22 35 29.83 1010 10 16.09344 0 0
5:15 am 05:15 Clear 55 13 37 3 51 51 WNW 16 26 29.85 1011 10 16.09344 0 0
5:35 am 05:35 Clear 55 13 37 3 51 51 WNW 14 22 29.85 1011 10 16.09344 0 0
5:55 am 05:55 Clear 55 13 39 4 55 55 WNW 17 28 29.85 1011 10 16.09344 0 0
6:15 am 06:15 Clear 54 12 39 4 58 58 WNW 17 28 29.85 1011 10 16.09344 0 0
6:35 am 06:35 Clear 54 12 39 4 58 58 WNW 18 30 29.85 1011 10 16.09344 0 0
6:55 am 06:55 Sunny 54 12 39 4 58 58 WNW 23 37 29.85 1011 10 16.09344 0 0
7:15 am 07:15 Sunny 54 12 41 5 63 63 WNW 18 30 29.88 1012 10 16.09344 0 0
7:35 am 07:35 Sunny 54 12 41 5 63 63 WNW 16 26 29.88 1012 10 16.09344 0 0
7:55 am 07:55 Sunny 54 12 41 5 63 63 WNW 12 19 29.88 1012 10 16.09344 0 0
8:15 am 08:15 Partly Cloudy 55 13 43 6 63 63 WNW 10 17 29.91 1013 10 16.09344 0 0
8:35 am 08:35 Cloudy 55 13 43 6 63 63 NW 10 17 29.91 1013 10 16.09344 0 0
8:55 am 08:55 Partly Cloudy 57 14 43 6 59 59 WNW 8 13 29.91 1013 10 16.09344 0 0
9:15 am 09:15 Sunny 59 15 43 6 55 55 W 12 19 29.91 1013 10 16.09344 0 0
9:35 am 09:35 Partly Cloudy 59 15 43 6 55 55 NW 16 26 29.91 1013 10 16.09344 0 0
9:55 am 09:55 Mostly Cloudy 59 15 43 6 55 55 NNW 18 30 29.91 1013 10 16.09344 0 0
10:15 am 10:15 Mostly Cloudy 61 16 43 6 52 52 NW 17 28 29.91 1013 10 16.09344 0 0
10:35 am 10:35 Mostly Cloudy 59 15 43 6 55 55 NW 15 24 29.91 1013 10 16.09344 0 0
10:55 am 10:55 Mostly Cloudy 59 15 43 6 55 55 WNW 15 24 29.91 1013 10 16.09344 0 0
11:15 am 11:15 Mostly Cloudy 61 16 43 6 52 52 NW 17 28 29.91 1013 10 16.09344 0 0
11:35 am 11:35 Partly Cloudy 63 17 43 6 49 49 NW 16 26 29.91 1013 10 16.09344 0 0
11:55 am 11:55 Sunny 63 17 43 6 49 49 NW 16 26 29.91 1013 10 16.09344 0 0
12:15 pm 12:15 Partly Cloudy 64 18 43 6 46 46 NW 15 24 29.91 1013 10 16.09344 0 0
12:35 pm 12:35 Mostly Cloudy 64 18 41 5 43 43 NW 16 26 29.91 1013 10 16.09344 0 0
12:55 pm 12:55 Mostly Cloudy 63 17 41 5 45 45 NW 17 28 29.91 1013 10 16.09344 0 0
1:15 pm 13:15 Mostly Cloudy 63 17 39 4 42 42 N 13 20 29.91 1013 10 16.09344 0 0
1:35 pm 13:35 Partly Cloudy 61 16 39 4 45 45 NW 20 31 29.91 1013 10 16.09344 0 0
1:55 pm 13:55 Mostly Cloudy 63 17 41 5 45 45 NNW 14 22 29.91 1013 10 16.09344 0 0
2:15 pm 14:15 Mostly Cloudy 63 17 37 3 39 39 NNW 17 28 29.91 1013 10 16.09344 0 0
2:35 pm 14:35 Partly Cloudy 63 17 37 3 39 39 NNW 18 30 29.94 1014 10 16.09344 0 0
2:55 pm 14:55 Sunny 61 16 37 3 42 42 NW 15 24 29.94 1014 10 16.09344 0 0
3:15 pm 15:15 Sunny 61 16 37 3 42 42 NW 14 22 29.94 1014 10 16.09344 0 0
3:35 pm 15:35 Sunny 61 16 37 3 42 42 NW 12 19 29.94 1014 10 16.09344 0 0
3:55 pm 15:55 Sunny 61 16 37 3 42 42 NW 15 24 29.97 1015 10 16.09344 0 0
4:15 pm 16:15 Sunny 61 16 37 3 42 42 NW 10 17 29.97 1015 10 16.09344 0 0
4:35 pm 16:35 Sunny 61 16 36 2 39 39 NW 10 17 29.97 1015 10 16.09344 0 0
4:55 pm 16:55 Partly Cloudy 59 15 37 3 45 45 NW 12 19 29.97 1015 10 16.09344 0 0
5:15 pm 17:15 Mostly Cloudy 59 15 37 3 45 45 NNW 7 11 30 1016 10 16.09344 0 0
5:35 pm 17:35 Partly Cloudy 59 15 37 3 45 45 N 12 19 30 1016 10 16.09344 0 0
5:55 pm 17:55 Clear 59 15 37 3 45 45 NNW 16 26 30.03 1017 10 16.09344 0 0
6:15 pm 18:15 Clear 57 14 37 3 48 48 NNW 12 19 30.06 1018 10 16.09344 0 0
6:35 pm 18:35 Clear 55 13 37 3 51 51 NNW 13 20 30.06 1018 10 16.09344 0 0
6:55 pm 18:55 Clear 55 13 36 2 47 47 N 9 15 30.09 1019 10 16.09344 0 0
7:15 pm 19:15 Clear 55 13 36 2 47 47 NNW 12 19 30.12 1020 10 16.09344 0 0
7:35 pm 19:35 Clear 54 12 34 1 47 47 N 9 15 30.12 1020 10 16.09344 0 0
7:55 pm 19:55 Clear 54 12 34 1 47 47 N 9 15 30.15 1021 10 16.09344 0 0
8:15 pm 20:15 Clear 52 11 34 1 50 50 N 12 19 30.15 1021 10 16.09344 0 0
8:35 pm 20:35 Clear 52 11 30 -1 44 44 N 15 24 30.21 1023 10 16.09344 0 0
8:55 pm 20:55 Clear 52 11 28 -2 41 41 N 16 26 30.21 1023 10 16.09344 0 0
9:15 pm 21:15 Clear 50 10 28 -2 43 43 N 16 26 30.21 1023 10 16.09344 0 0
9:35 pm 21:35 Clear 50 10 28 -2 43 43 NNW 15 24 30.21 1023 10 16.09344 0 0
9:55 pm 21:55 Clear 50 10 28 -2 43 43 N 13 20 30.24 1024 10 16.09344 0 0
10:15 pm 22:15 Clear 48 9 30 -1 50 50 N 13 20 30.24 1024 10 16.09344 0 0
10:35 pm 22:35 Clear 46 8 30 -1 53 53 NNW 17 28 30.24 1024 10 16.09344 0 0
10:55 pm 22:55 Clear 46 8 30 -1 53 53 NNW 18 30 30.24 1024 10 16.09344 0 0
11:15 pm 23:15 Clear 46 8 30 -1 53 53 N 13 20 30.27 1025 10 16.09344 0 0
11:35 pm 23:35 Clear 45 7 30 -1 57 57 N 13 20 30.27 1025 10 16.09344 0 0
11:55 pm 23:55 Clear 45 7 28 -2 53 53 N 8 13 30.27 1025 10 16.09344 0 0

Powered by AerisWeather